#timestamp,LO_Frequency,Hit,StdDev 
1664211615.4,286046995.6,N
1664211635.2,286046997.4,N
1664211655.0,286046995.3,N
1664211655.9,286046995.3,N
1664211675.8,286046998.7,N
1664211695.6,286046998.7,N
1664211715.5,286046998.4,N
1664211735.3,286047000.4,N
1664211755.1,286046999.9,N
1664211775.9,286046999.6,N
1664211795.7,286046996.9,N
1664211815.5,286046997.7,N
1664211835.4,286046999.3,N
1664211855.2,286046999.7,N
1664211875.1,286047000.5,N
1664211876.0,286047000.5,N
1664211895.8,286047000.3,N
1664211915.6,286047002.0,N
1664211935.5,286047001.8,N
1664211955.3,286047004.1,N
1664211975.1,286047001.8,N
1664211995.9,286047002.6,N
1664212015.7,286047001.9,N
1664212035.6,286047001.5,N
1664212055.4,286047001.9,N
1664212075.2,286047000.3,N
1664212095.1,286047000.3,N
1664212096.0,286047000.3,N
1664212115.8,286047002.7,N
1664212135.7,286047002.7,N
1664212155.5,286047001.1,N
1664212175.3,286046996.8,N
1664212195.2,286046999.6,N
1664212215.9,286046999.1,N
1664212235.7,286046996.7,N
1664212255.6,286046998.1,N
1664212275.4,286047001.1,N
1664212295.2,286047001.2,N
1664212315.1,286046999.9,N
1664212316.0,286046999.9,N
1664212335.8,286047002.7,N
1664212355.7,286047002.3,N
1664212375.5,286046999.8,N
1664212395.3,286047001.5,N
1664212415.2,286047004.2,N
1664212435.0,286046999.7,N
1664212435.9,286046999.7,N
1664212455.8,286047000.6,N
1664212475.6,286047000.4,N
1664212495.4,286047004.2,N
1664212515.3,286047002.3,N
1664212535.1,286047002.6,N
1664212555.8,286047004.3,N
1664212575.7,286047003.5,N
1664212595.5,286047001.1,N
1664212615.4,286047000.6,N
1664212635.2,286047001.2,N
1664212655.0,286046999.3,N
1664212655.9,286046999.3,N
1664212675.8,286047000.7,N
1664212695.6,286047000.7,N
1664212715.5,286047000.3,N
1664212735.3,286047002.8,N
1664212755.1,286046999.7,N
1664212775.9,286046998.2,N
1664212795.7,286047001.2,N
1664212815.6,286046998.9,N
1664212835.4,286046996.8,N
1664212855.2,286046996.7,N
1664212875.1,286046997.4,N
1664212876.0,286046997.4,N
1664212895.8,286047001.1,N
1664212915.6,286047002.4,N
1664212935.5,286047002.2,N
1664212955.3,286047001.3,N
1664212975.2,286047003.5,N
1664212995.9,286047006.0,N
1664213015.7,286047001.8,N
1664213035.6,286047002.2,N
1664213055.4,286047001.6,N
1664213075.2,286047002.2,N
1664213095.1,286047001.3,N
1664213096.0,286047001.3,N
1664213115.8,286047002.3,N
1664213135.7,286047002.6,N
1664213155.5,286047001.7,N
1664213175.3,286047001.6,N
1664213195.2,286047002.9,N
1664213215.0,286047001.3,N
1664213215.9,286047001.3,N
1664213235.8,286047002.3,N
1664213255.6,286046999.0,N
1664213275.4,286046998.1,N
1664213295.3,286047000.2,N
1664213315.1,286047002.7,N
1664213335.8,286047001.6,N
1664213355.7,286047004.2,N
1664213375.5,286047003.4,N
1664213395.4,286047005.7,N
1664213415.2,286047003.3,N
1664213435.0,286047004.1,N
1664213435.9,286047004.1,N
1664213455.8,286047003.7,N
1664213475.6,286047003.4,N
1664213495.4,286047003.6,N
1664213515.3,286047006.0,Y
1664213535.1,286047002.8,P
1664213555.9,286047001.1,P
1664213575.7,286046999.9,N
1664213595.5,286047002.8,N
1664213615.4,286047000.1,N
1664213635.2,286047000.4,N
1664213655.1,286047000.3,N
1664213656.0,286047000.3,N
1664213675.8,286047002.3,N
1664213695.6,286046998.3,N
1664213715.5,286046999.1,N
1664213735.3,286046998.4,N
1664213755.1,286046999.4,N
1664213775.9,286046996.9,N
1664213795.7,286046999.2,N
1664213815.6,286047001.2,N
1664213835.4,286047000.7,N
1664213855.2,286046998.5,N
1664213875.1,286046999.8,N
1664213876.0,286046999.8,N
1664213895.8,286047001.8,N
1664213915.7,286047003.1,N
1664213935.5,286047002.5,N
1664213955.3,286047002.7,N
1664213975.2,286047000.1,N
1664213995.0,286047002.6,N
1664213995.9,286047002.6,N
1664214015.7,286047000.0,N
1664214035.6,286047001.1,N
1664214055.4,286047000.3,N
1664214075.3,286046999.9,N
1664214095.1,286047002.1,N
1664214096.0,286047002.1,N
1664214115.8,286046999.8,N
1664214135.7,286047004.0,N
1664214155.5,286047001.9,N
1664214175.3,286047001.9,N
1664214195.2,286047002.1,N
1664214215.0,286047002.3,N
1664214215.9,286047002.3,N
1664214235.8,286046999.9,N
1664214255.6,286047000.5,N
1664214275.4,286047001.1,N
1664214295.3,286047000.7,N
1664214315.1,286047002.2,N
1664214335.9,286047001.8,N
1664214355.7,286047002.2,N
1664214375.5,286046999.0,N
1664214395.4,286046998.5,N
1664214415.2,286047001.0,N
1664214435.0,286046998.2,N
1664214435.9,286046998.2,N
1664214455.8,286047000.3,N
1664214475.6,286047002.8,N
1664214495.5,286047001.6,N
1664214515.3,286047001.9,N
1664214535.1,286047001.3,N
1664214555.9,286047003.5,N
1664214575.7,286047002.0,N
1664214595.6,286047002.3,N
1664214615.4,286047000.2,N
1664214635.2,286046998.5,N
1664214655.1,286047001.2,N
1664214656.0,286047001.2,N
1664214675.8,286047000.9,N
1664214695.6,286047000.7,N
1664214715.5,286047001.4,N
1664214735.3,286047003.3,N
1664214755.2,286047003.2,N
1664214775.9,286047001.7,N
1664214795.7,286047002.8,N
1664214815.6,286047000.9,N
1664214835.4,286047001.1,N
1664214855.2,286047001.1,N
1664214875.1,286047000.9,N
1664214876.0,286047000.9,N
1664214895.8,286047000.4,N
1664214915.7,286046999.7,N
1664214935.5,286047002.6,N
1664214955.4,286047003.6,N
1664214975.2,286047005.2,Y
1664214995.0,286047003.5,P
1664214995.9,286047003.5,P
1664215015.8,286047004.3,P
1664215035.6,286047004.2,Y
1664215055.5,286046998.1,P
1664215075.3,286047000.1,N
1664215095.1,286047000.0,N
1664215115.9,286047000.6,N
1664215135.7,286046999.9,N
1664215155.5,286047000.3,N
1664215175.4,286047000.1,N
1664215195.2,286047002.3,N
